BLY90 EGGP-EGAE

Flight info

Callsign BLY90
Flight time 0h 40m
Altitude 24000
Route WAL M146 IPSET P6 BELZU
Aircraft E75L/M-SDE3GILORVW/S

Departure

Time 2026-05-06 11:26
Airport Liverpool John Lennon Airport (EGGP)

Arrival

Time 2026-05-06 12:06
Airport City of Derry Airport (EGAE)
Time Latitude Longitude Altitude Speed Heading
2026-05-06 11:07 53.33561 -2.85589 83 ft 0 kts 175°
2026-05-06 11:19 53.33560 -2.85589 83 ft 0 kts 175°
2026-05-06 11:19 53.33566 -2.85590 83 ft 2 kts 175°
2026-05-06 11:20 53.33580 -2.85592 83 ft 2 kts 175°
2026-05-06 11:20 53.33595 -2.85594 84 ft 2 kts 189°
2026-05-06 11:20 53.33608 -2.85582 84 ft 2 kts 232°
2026-05-06 11:20 53.33612 -2.85559 84 ft 2 kts 268°
2026-05-06 11:21 53.33613 -2.85545 84 ft 0 kts 266°
2026-05-06 11:21 53.33613 -2.85546 84 ft 0 kts 266°
2026-05-06 11:22 53.33612 -2.85559 84 ft 3 kts 266°
2026-05-06 11:22 53.33610 -2.85622 84 ft 7 kts 266°
2026-05-06 11:23 53.33605 -2.85735 82 ft 11 kts 265°
2026-05-06 11:23 53.33597 -2.85891 80 ft 14 kts 265°
2026-05-06 11:23 53.33592 -2.86072 77 ft 17 kts 265°
2026-05-06 11:23 53.33585 -2.86228 77 ft 10 kts 260°
2026-05-06 11:24 53.33524 -2.86318 73 ft 12 kts 181°
2026-05-06 11:24 53.33464 -2.86389 70 ft 14 kts 266°
2026-05-06 11:24 53.33457 -2.86571 66 ft 17 kts 266°
2026-05-06 11:24 53.33410 -2.86725 62 ft 16 kts 203°
2026-05-06 11:25 53.33306 -2.86670 61 ft 16 kts 130°
2026-05-06 11:25 53.33299 -2.86360 67 ft 58 kts 86°
2026-05-06 11:25 53.33350 -2.85279 79 ft 126 kts 84°
2026-05-06 11:25 53.33413 -2.83626 428 ft 148 kts 86°
2026-05-06 11:26 53.33567 -2.82012 1224 ft 142 kts 63°
2026-05-06 11:26 53.34282 -2.80910 1763 ft 154 kts 17°
2026-05-06 11:26 53.35405 -2.81230 2137 ft 183 kts 326°
2026-05-06 11:26 53.36139 -2.83042 2620 ft 208 kts 284°
2026-05-06 11:27 53.36103 -2.85627 2850 ft 243 kts 259°
2026-05-06 11:27 53.36002 -2.88575 3276 ft 264 kts 286°
2026-05-06 11:27 53.36549 -2.91488 3923 ft 262 kts 288°
2026-05-06 11:27 53.37004 -2.94439 3984 ft 262 kts 284°
2026-05-06 11:28 53.37395 -2.97428 4003 ft 263 kts 283°
2026-05-06 11:28 53.37752 -3.00415 4007 ft 263 kts 282°
2026-05-06 11:28 53.38096 -3.03431 4007 ft 264 kts 282°
2026-05-06 11:28 53.38429 -3.06424 4008 ft 263 kts 282°
2026-05-06 11:29 53.38761 -3.09449 4006 ft 263 kts 282°
2026-05-06 11:29 53.39121 -3.12447 4001 ft 262 kts 291°
2026-05-06 11:29 53.40129 -3.14932 4161 ft 268 kts 315°
2026-05-06 11:29 53.41410 -3.17157 4722 ft 262 kts 316°
2026-05-06 11:30 53.42691 -3.19359 5351 ft 268 kts 316°
2026-05-06 11:30 53.43983 -3.21572 6095 ft 267 kts 316°
2026-05-06 11:30 53.45277 -3.23784 6860 ft 267 kts 315°
2026-05-06 11:30 53.46571 -3.25995 7623 ft 267 kts 315°
2026-05-06 11:31 53.47863 -3.28203 8392 ft 268 kts 315°
2026-05-06 11:31 53.49167 -3.30433 9087 ft 271 kts 315°
2026-05-06 11:31 53.50484 -3.32687 9805 ft 273 kts 315°
2026-05-06 11:31 53.51811 -3.34960 10531 ft 276 kts 315°
2026-05-06 11:32 53.53166 -3.37283 11107 ft 285 kts 315°
2026-05-06 11:32 53.54571 -3.39695 11632 ft 295 kts 314°
2026-05-06 11:32 53.56006 -3.42160 12188 ft 304 kts 314°
2026-05-06 11:32 53.57504 -3.44744 12827 ft 311 kts 313°
2026-05-06 11:33 53.58823 -3.47644 13566 ft 315 kts 306°
2026-05-06 11:33 53.60073 -3.50606 14322 ft 317 kts 306°
2026-05-06 11:33 53.61341 -3.53616 15080 ft 319 kts 306°
2026-05-06 11:33 53.62622 -3.56659 15792 ft 322 kts 306°
2026-05-06 11:34 53.63925 -3.59758 16497 ft 325 kts 306°
2026-05-06 11:34 53.65232 -3.62870 17180 ft 328 kts 305°
2026-05-06 11:34 53.66540 -3.65993 17818 ft 332 kts 304°
2026-05-06 11:34 53.67867 -3.69164 18441 ft 336 kts 304°
2026-05-06 11:35 53.69213 -3.72386 19050 ft 339 kts 304°
2026-05-06 11:35 53.70563 -3.75622 19654 ft 342 kts 304°
2026-05-06 11:35 53.71941 -3.78929 20250 ft 346 kts 304°
2026-05-06 11:35 53.73313 -3.82225 20854 ft 348 kts 304°
2026-05-06 11:36 53.74714 -3.85595 21446 ft 351 kts 304°
2026-05-06 11:36 53.76113 -3.88966 22006 ft 353 kts 304°
2026-05-06 11:36 53.77515 -3.92348 22569 ft 356 kts 304°
2026-05-06 11:36 53.78928 -3.95762 23121 ft 358 kts 304°
2026-05-06 11:37 53.80354 -3.99211 23651 ft 361 kts 304°
2026-05-06 11:37 53.81797 -4.02706 24010 ft 361 kts 304°
2026-05-06 11:37 53.83239 -4.06203 24051 ft 377 kts 304°
2026-05-06 11:37 53.84764 -4.09908 24059 ft 389 kts 304°
2026-05-06 11:38 53.86317 -4.13688 24050 ft 392 kts 304°
2026-05-06 11:38 53.87882 -4.17500 24049 ft 392 kts 304°
2026-05-06 11:38 53.89412 -4.21237 24048 ft 392 kts 304°
2026-05-06 11:38 53.90958 -4.25019 24045 ft 391 kts 304°
2026-05-06 11:39 53.92516 -4.28834 24049 ft 391 kts 304°
2026-05-06 11:39 53.94040 -4.32575 24047 ft 390 kts 304°
2026-05-06 11:39 53.95583 -4.36362 24046 ft 390 kts 304°
2026-05-06 11:39 53.97107 -4.40111 24053 ft 390 kts 304°
2026-05-06 11:40 53.98643 -4.43893 24054 ft 390 kts 304°
2026-05-06 11:40 54.00192 -4.47713 24047 ft 390 kts 304°
2026-05-06 11:40 54.01729 -4.51461 24046 ft 390 kts 308°
2026-05-06 11:40 54.03532 -4.54922 24059 ft 391 kts 312°
2026-05-06 11:41 54.05360 -4.58314 24051 ft 392 kts 312°
2026-05-06 11:41 54.07195 -4.61721 24050 ft 392 kts 312°
2026-05-06 11:41 54.09043 -4.65159 24051 ft 391 kts 311°
2026-05-06 11:41 54.10873 -4.68565 24054 ft 391 kts 311°
2026-05-06 11:42 54.12703 -4.71979 24053 ft 390 kts 311°
2026-05-06 11:42 54.14504 -4.75342 24057 ft 390 kts 311°
2026-05-06 11:42 54.16342 -4.78780 24053 ft 390 kts 311°
2026-05-06 11:42 54.18163 -4.82190 24056 ft 390 kts 311°
2026-05-06 11:43 54.19970 -4.85578 24055 ft 389 kts 311°
2026-05-06 11:43 54.21777 -4.88972 24051 ft 389 kts 311°
2026-05-06 11:43 54.23593 -4.92388 24052 ft 389 kts 311°
2026-05-06 11:44 54.27206 -4.99198 24052 ft 389 kts 311°
2026-05-06 11:44 54.29012 -5.02607 24051 ft 388 kts 311°
2026-05-06 11:44 54.30835 -5.06057 24050 ft 388 kts 311°
2026-05-06 11:44 54.32626 -5.09449 24047 ft 388 kts 311°
2026-05-06 11:45 54.34424 -5.12859 24048 ft 389 kts 311°
2026-05-06 11:45 54.36250 -5.16326 24047 ft 389 kts 311°
2026-05-06 11:45 54.38049 -5.19749 24045 ft 389 kts 311°
2026-05-06 11:45 54.39832 -5.23145 24035 ft 379 kts 311°
2026-05-06 11:46 54.41582 -5.26484 24037 ft 375 kts 311°
2026-05-06 11:46 54.43296 -5.29756 24045 ft 374 kts 311°
2026-05-06 11:46 54.45055 -5.33120 24033 ft 375 kts 311°
2026-05-06 11:46 54.46854 -5.36358 23682 ft 376 kts 313°
2026-05-06 11:47 54.48642 -5.39549 23285 ft 373 kts 313°
2026-05-06 11:47 54.50423 -5.42733 22877 ft 369 kts 313°
2026-05-06 11:47 54.51905 -5.46282 22473 ft 365 kts 293°
2026-05-06 11:47 54.52759 -5.50355 22076 ft 364 kts 289°
2026-05-06 11:48 54.53536 -5.54431 21669 ft 362 kts 288°
2026-05-06 11:48 54.54309 -5.58544 21266 ft 360 kts 288°
2026-05-06 11:48 54.55071 -5.62626 20868 ft 358 kts 288°
2026-05-06 11:48 54.55821 -5.66661 20478 ft 356 kts 287°
2026-05-06 11:49 54.56571 -5.70710 20090 ft 354 kts 287°
2026-05-06 11:49 54.57309 -5.74702 19699 ft 352 kts 287°
2026-05-06 11:49 54.58045 -5.78691 19315 ft 350 kts 287°
2026-05-06 11:49 54.58779 -5.82678 18926 ft 348 kts 287°
2026-05-06 11:50 54.59507 -5.86642 18547 ft 347 kts 287°
2026-05-06 11:50 54.60233 -5.90603 18165 ft 345 kts 287°
2026-05-06 11:50 54.60947 -5.94503 17791 ft 344 kts 287°
2026-05-06 11:50 54.61661 -5.98417 17409 ft 342 kts 287°
2026-05-06 11:51 54.62370 -6.02309 17029 ft 341 kts 287°
2026-05-06 11:51 54.63067 -6.06145 16657 ft 338 kts 287°
2026-05-06 11:51 54.63765 -6.09990 16291 ft 336 kts 287°
2026-05-06 11:51 54.64458 -6.13822 15920 ft 335 kts 287°
2026-05-06 11:52 54.65150 -6.17649 15551 ft 333 kts 287°
2026-05-06 11:52 54.65833 -6.21438 15188 ft 331 kts 287°
2026-05-06 11:52 54.66702 -6.25085 14826 ft 330 kts 295°
2026-05-06 11:52 54.67702 -6.28641 14454 ft 328 kts 295°
2026-05-06 11:53 54.68689 -6.32156 14096 ft 327 kts 295°
2026-05-06 11:53 54.69678 -6.35687 13734 ft 325 kts 295°
2026-05-06 11:53 54.70651 -6.39162 13375 ft 323 kts 295°
2026-05-06 11:53 54.71620 -6.42630 13017 ft 322 kts 295°
2026-05-06 11:54 54.72594 -6.46122 12666 ft 321 kts 295°
2026-05-06 11:54 54.73564 -6.49605 12295 ft 320 kts 295°
2026-05-06 11:54 54.74522 -6.53045 11958 ft 318 kts 295°
2026-05-06 11:54 54.75472 -6.56467 11604 ft 315 kts 295°
2026-05-06 11:55 54.76401 -6.59815 11240 ft 306 kts 295°
2026-05-06 11:55 54.77290 -6.63068 10982 ft 290 kts 291°
2026-05-06 11:55 54.77931 -6.66189 11601 ft 271 kts 288°
2026-05-06 11:55 54.78537 -6.69285 12193 ft 276 kts 286°
2026-05-06 11:56 54.79022 -6.72495 12781 ft 279 kts 283°
2026-05-06 11:56 54.79467 -6.75677 12764 ft 265 kts 283°
2026-05-06 11:56 54.79895 -6.78760 12242 ft 267 kts 283°
2026-05-06 11:56 54.80326 -6.81863 11579 ft 273 kts 283°
2026-05-06 11:57 54.80770 -6.85062 10945 ft 276 kts 283°
2026-05-06 11:57 54.81221 -6.88299 10308 ft 275 kts 283°
2026-05-06 11:57 54.81665 -6.91484 9624 ft 272 kts 283°
2026-05-06 11:57 54.82107 -6.94620 8950 ft 270 kts 283°
2026-05-06 11:58 54.82553 -6.97748 8280 ft 268 kts 283°
2026-05-06 11:58 54.83002 -7.00864 7604 ft 267 kts 283°
2026-05-06 11:58 54.83453 -7.03948 6965 ft 265 kts 283°
2026-05-06 11:58 54.83907 -7.07030 6293 ft 264 kts 283°
2026-05-06 11:59 54.84355 -7.10052 5648 ft 263 kts 283°
2026-05-06 11:59 54.84806 -7.13109 5026 ft 262 kts 283°
2026-05-06 11:59 54.85252 -7.16155 4557 ft 261 kts 283°
2026-05-06 11:59 54.85695 -7.19204 4108 ft 259 kts 283°
2026-05-06 12:00 54.86127 -7.22206 3663 ft 258 kts 283°
2026-05-06 12:00 54.86555 -7.25201 3351 ft 262 kts 283°
2026-05-06 12:00 54.86987 -7.28249 3302 ft 251 kts 283°
2026-05-06 12:00 54.87598 -7.30940 3225 ft 236 kts 303°
2026-05-06 12:01 54.88687 -7.32875 3285 ft 215 kts 330°
2026-05-06 12:01 54.90036 -7.33845 3439 ft 210 kts 342°
2026-05-06 12:01 54.91438 -7.34636 3355 ft 214 kts 341°
2026-05-06 12:01 54.92839 -7.35467 3097 ft 214 kts 340°
2026-05-06 12:02 54.94233 -7.36191 3061 ft 197 kts 351°
2026-05-06 12:02 54.95547 -7.36161 2970 ft 191 kts 11°
2026-05-06 12:02 54.96841 -7.35518 2690 ft 195 kts 20°
2026-05-06 12:02 54.98100 -7.34736 2415 ft 192 kts 21°
2026-05-06 12:03 54.99291 -7.33837 1998 ft 184 kts 29°
2026-05-06 12:03 55.00352 -7.32706 1585 ft 176 kts 38°
2026-05-06 12:03 55.01197 -7.31349 1503 ft 156 kts 49°
2026-05-06 12:03 55.01830 -7.29822 1268 ft 154 kts 64°
2026-05-06 12:04 55.02182 -7.28125 1140 ft 146 kts 75°
2026-05-06 12:04 55.02468 -7.26431 994 ft 146 kts 73°
2026-05-06 12:04 55.02769 -7.24778 832 ft 142 kts 72°
2026-05-06 12:04 55.03036 -7.23162 731 ft 137 kts 73°
2026-05-06 12:05 55.03328 -7.21587 572 ft 139 kts 73°
2026-05-06 12:05 55.03603 -7.19994 366 ft 135 kts 73°
2026-05-06 12:05 55.03865 -7.18475 164 ft 129 kts 70°
2026-05-06 12:05 55.04122 -7.17017 15 ft 120 kts 72°
2026-05-06 12:06 55.04305 -7.15987 4 ft 53 kts 73°
2026-05-06 12:06 55.04352 -7.15713 3 ft 8 kts 72°
2026-05-06 12:06 55.04369 -7.15604 3 ft 9 kts 89°
2026-05-06 12:06 55.04380 -7.15535 3 ft 4 kts 326°
2026-05-06 12:07 55.04377 -7.15597 3 ft 6 kts 251°
2026-05-06 12:07 55.04356 -7.15702 3 ft 10 kts 252°
2026-05-06 12:07 55.04332 -7.15832 3 ft 11 kts 253°
2026-05-06 12:07 55.04289 -7.15944 4 ft 11 kts 197°
2026-05-06 12:08 55.04212 -7.15924 6 ft 11 kts 166°
2026-05-06 12:08 55.04139 -7.15894 7 ft 10 kts 167°
2026-05-06 12:08 55.04080 -7.15860 8 ft 5 kts 139°
2026-05-06 12:08 55.04055 -7.15832 9 ft 4 kts 164°
2026-05-06 12:09 55.04030 -7.15822 9 ft 3 kts 168°
2026-05-06 12:09 55.04010 -7.15815 10 ft 0 kts 169°